Flag for Nicaragua Weather past 2 weeks in Masaya, Nicaragua

Now
81 °F

Passing clouds.


Feels Like: 84 °F
Forecast: 73 / 88 °F
Wind: 12 mph from East

Location: Managua A. C. Sandino

Current Time: Jul 31, 2015 at 9:56:51 PM

Latest Report: Jul 31, 2015 at 9:00 PM


Visibility: N/A

Pressure: 29.86 "Hg

Humidity: 70%

Dew point: 70 °F

Location of MasayaLocation

Historic Weather in Masaya — Graph

°F

Masaya temperature yesterday

Maximum temperature yesterday: 91 °F (at 2:00 PM)
Minimum temperature yesterday: 77 °F (at 3:00 AM)
Average temperature yesterday: 83 °F

Past Weeks' High & Low Weather Summary

 TemperatureHumidityPressure
High93 °F (Jul 17, 2:00 PM)94% (Jul 18, 4:00 PM)29.95 "Hg (Jul 18, 4:00 PM)
Low73 °F (Jul 22, 4:00 AM)39% (Jul 27, 1:00 PM)29.74 "Hg (Jul 25, 3:00 PM)
Average83 °F71%29.85 "Hg
* Reported Jul 16 8:00 PM — Jul 31 8:00 PM, Masaya, Weather by CustomWeather, © 2015

Note: Actual official high and low records may vary slightly from our data, if they occured in-between our weather recording intervals... More about our weather records

Advertising

Masaya weather history for previous 24 hours

 ConditionsComfort  
Time TempWeatherWind HumidityBarometerVisibility
8:00 PM
Fri, Jul 31
81 °FPassing clouds.9 mph66%29.86 "HgN/A
7:00 PM82 °FPassing clouds.9 mph62%29.83 "HgN/A
6:00 PM88 °FScattered clouds.21 mph55%29.83 "HgN/A
5:00 PM90 °FScattered clouds.14 mph52%29.83 "HgN/A
4:00 PM91 °FScattered clouds.18 mph46%29.80 "HgN/A
3:00 PM91 °FScattered clouds.18 mph52%29.83 "HgN/A
2:00 PM88 °FScattered clouds.18 mph55%29.83 "HgN/A
1:00 PM90 °FScattered clouds.16 mph52%29.86 "HgN/A
12:00 PM90 °FScattered clouds.14 mph52%29.86 "HgN/A
11:00 AM86 °FScattered clouds.12 mph62%29.89 "HgN/A
10:00 AM84 °FScattered clouds.9 mph66%29.92 "Hg6 mi
9:00 AM82 °FPartly sunny.12 mph70%29.92 "Hg5 mi
8:00 AM81 °FPartly sunny.7 mph74%29.92 "Hg5 mi
7:00 AM77 °FPartly sunny.5 mph83%29.86 "HgN/A
6:00 AM75 °FPartly sunny.5 mph83%29.86 "Hg6 mi
5:00 AM75 °FPassing clouds.5 mph83%29.86 "Hg6 mi
4:00 AM75 °FPassing clouds.5 mph83%29.86 "Hg6 mi
1:00 AM77 °FPassing clouds.No wind83%29.89 "Hg6 mi
12:00 AM77 °FPassing clouds.5 mph79%29.92 "Hg6 mi
11:00 PM
Thu, Jul 30
77 °FPassing clouds.5 mph79%29.92 "Hg6 mi
10:00 PM79 °FPassing clouds.No wind79%29.92 "Hg6 mi
9:00 PM81 °FPassing clouds.7 mph70%29.89 "Hg6 mi
Weather by CustomWeather, © 2015

See weather overviewHow to use our weather pages